sat.trackr.live / text

‹ back to catalog

STARLINK-31026

NORAD 58508 · 2023-191A

PAYLOAD ACTIVE UNKNOWN

§ Identity

Operator
Country
US
Launch date
2023-12-07
Launch site
AFETR
Launch vehicle
Mass (kg)
RCS (m²)

Purposes: comms

External: N2YO · Heavens-Above · Gunter

§ Orbital elements

Epoch: 2026-09-19T21:59:50.002944Z

Period
94.27 min
Inclination
43.0033°
Eccentricity
0.0001002
Mean motion
15.27580812 rev/d
Perigee alt
482.4 km
Apogee alt
483.7 km
Semi-major
6,861.2 km
B*
2.6784e-5
RAAN
93.5443°
Arg perigee
270.5579°
Mean anomaly
89.5157°
Rev number
15,509

§ Raw data

STARLINK-310261 58508U 23191A   26262.91655096  .00000475  00000+0  26784-4 0  99972 58508  43.0033  93.5443 0001002 270.5579  89.5157 15.27580812155091

JSON: /api/v1/satellites/58508 · /tle

For live sub-satellite position, see the globe view (requires WebGL).

§ Visibility from observer

Set your observer location to see the next 7 days of passes ≥ 10°. The values pass through the URL so the page stays shareable.

No JS? Fill the form by hand. The geolocation button needs JavaScript.